Wind_Speed
14 14 15 15 16 17 19 18 17 18 19 20 21 22 22 23 14 3 3 1 2 8 9 5 8 8 14 6 4 3 2 2 3 6 5 10 11 6 4 8 3 1 2 5 19
15 15 16 18 18 18 18 17 17 18 19 20 22 22 23 21 6 2 2 3 4 7 3 6 1 1 5 5 4 2 0 1 1 2 4 13 14 13 6 8 3 2 7 19 20
16 16 17 18 19 19 18 18 18 19 19 20 21 21 24 12 1 2 5 3 4 3 2 4 3 1 2 1 2 2 1 4 4 5 3 10 7 10 7 7 9 10 16 19 19
17 16 17 19 20 20 19 19 19 19 19 19 20 20 18 4 1 2 4 2 1 3 3 2 1 1 2 2 0 2 2 4 2 3 5 9 10 8 11 4 3 11 18 19 16
17 18 19 20 21 20 20 19 19 18 18 18 17 17 7 2 1 4 2 2 2 4 5 3 3 1 2 2 1 0 2 2 4 4 3 8 13 8 11 3 9 17 17 18 16
18 19 20 21 22 21 21 20 20 19 18 16 13 12 2 3 2 2 1 1 2 5 4 3 3 2 1 1 2 3 6 5 2 2 5 8 6 9 5 11 14 17 19 17 18
19 19 20 22 22 22 22 21 21 19 17 12 7 6 0 8 2 2 1 0 2 3 3 2 3 3 1 1 4 4 6 6 5 3 1 7 4 13 8 14 17 16 15 15 15
19 20 20 23 23 23 22 21 21 18 12 5 3 3 5 3 6 4 3 1 2 3 4 5 2 1 2 1 3 1 1 3 3 2 1 7 11 8 12 17 17 17 14 13 15
20 22 21 22 22 24 22 22 16 8 3 1 2 3 6 6 3 2 6 1 2 3 4 2 4 3 0 1 0 5 2 3 5 5 1 6 9 4 10 12 15 15 14 13 13
20 21 21 21 21 22 20 12 2 3 3 3 2 2 4 1 3 2 4 3 3 2 2 4 4 0 2 3 7 3 1 2 5 3 3 5 10 1 8 11 14 15 12 13 13
20 21 20 20 20 19 15 2 3 2 2 4 1 3 4 8 4 1 3 6 2 4 2 3 3 5 4 3 4 3 2 3 5 3 4 2 5 1 7 10 12 13 12 12 6
19 20 20 19 19 9 7 5 3 1 6 5 7 8 9 2 4 1 7 5 3 4 3 2 4 2 2 4 4 2 1 3 5 5 2 4 1 5 1 3 7 8 10 11 10
20 20 19 19 10 4 6 6 9 4 3 5 5 5 3 10 5 5 9 4 3 4 4 4 3 4 5 3 4 2 4 2 2 3 3 7 1 2 4 5 8 3 13 12 16
20 18 18 17 2 7 2 6 10 12 2 3 3 2 4 5 4 6 10 3 2 6 5 4 1 3 2 4 7 4 7 3 1 1 2 6 4 4 5 7 8 7 10 14 15
19 18 16 13 9 2 1 12 4 4 2 2 1 2 2 7 3 4 3 3 6 5 4 2 5 4 3 3 9 2 4 4 2 3 2 5 2 2 5 5 9 5 11 15 15
19 17 13 6 6 4 5 6 3 1 5 2 0 3 5 4 1 3 4 3 2 4 2 3 2 3 2 2 2 9 5 5 3 1 3 2 3 1 4 5 4 3 11 14 14
19 13 10 6 2 4 8 1 2 4 3 2 2 2 2 6 4 4 11 10 6 5 7 2 4 3 3 3 5 3 3 2 3 3 2 2 3 2 6 6 6 8 10 12 10
17 11 6 7 3 2 1 2 3 2 4 2 2 3 5 9 9 5 8 10 4 3 3 7 7 6 5 4 4 3 2 3 1 2 0 2 1 2 6 6 2 5 7 11 13
16 4 2 4 5 4 2 4 6 5 2 4 4 3 2 3 3 10 11 8 11 11 4 5 5 2 2 2 1 5 4 3 6 1 3 1 3 8 5 2 6 5 8 9 10
8 2 5 6 6 3 2 4 3 3 4 2 2 1 1 0 6 8 9 6 7 13 11 4 3 1 2 3 8 1 8 4 1 4 3 2 3 4 5 4 7 7 9 7 3
3 2 9 10 3 2 4 4 3 4 3 2 1 3 2 2 1 4 4 3 8 9 9 7 2 3 2 3 6 5 4 5 4 2 2 3 2 4 7 6 8 9 10 7 4
2 2 2 6 2 1 2 1 2 3 1 2 2 3 2 2 3 3 7 5 5 11 11 6 3 6 6 1 2 2 5 5 4 5 1 2 2 2 4 7 6 6 6 4 2
2 1 2 3 2 2 0 2 3 2 2 2 3 4 1 1 3 4 4 0 4 10 10 9 3 4 3 2 2 3 3 4 7 2 6 4 2 3 5 3 2 2 3 2 0
1 2 2 3 1 2 2 1 3 3 5 4 4 2 2 3 3 3 2 1 1 6 2 9 4 5 7 2 3 4 5 7 2 5 8 4 1 5 5 2 3 4 1 2 2
3 2 2 2 2 2 2 1 2 4 3 3 3 9 6 3 2 4 2 2 2 1 3 6 8 6 4 4 3 4 10 9 5 7 5 7 6 3 6 4 2 4 6 6 3
3 2 1 2 0 2 1 1 3 3 4 4 6 6 7 7 4 2 2 1 1 1 3 0 5 6 6 4 8 5 7 6 4 6 2 3 4 5 3 1 6 6 5 3 1
4 2 3 1 1 2 2 1 4 2 7 13 9 7 6 7 4 3 1 2 1 2 3 3 6 5 5 3 9 5 7 8 3 2 2 5 0 5 6 4 5 5 1 2 4
Wind_Direction
9 4 5 4 357 356 353 352 350 347 348 345 343 344 344 338 336 325 248 223 278 319 333 348 158 156 179 181 203 173 227 162 159 164 176 172 185 167 128 141 160 230 180 147 149
3 360 358 358 353 355 350 345 344 341 344 343 341 343 344 337 347 329 322 291 313 316 338 29 8 84 175 155 166 243 65 67 319 231 208 194 188 158 165 166 207 181 105 140 151
358 356 353 353 351 349 345 340 339 339 340 339 340 342 342 341 295 11 348 314 303 313 16 344 294 296 92 38 50 124 158 182 215 247 263 194 179 166 164 202 211 203 157 158 165
356 351 348 351 348 343 340 337 334 334 333 336 339 341 341 357 90 347 14 359 35 28 29 328 294 99 105 132 245 251 213 215 194 221 149 176 157 188 200 211 282 179 165 159 173
354 348 348 348 344 339 335 333 328 329 329 331 335 340 357 324 292 351 36 94 48 6 47 19 49 53 148 145 179 302 337 271 277 220 194 160 197 196 216 209 121 145 167 171 178
352 346 345 344 340 335 332 330 327 324 323 322 327 341 10 274 314 352 75 89 11 16 1 29 15 346 96 89 29 327 277 291 236 137 175 199 214 190 200 143 142 165 176 181 185
352 346 341 340 337 333 330 328 322 318 315 311 319 346 9 249 321 293 209 253 9 358 339 355 353 327 293 86 355 346 354 339 48 349 161 154 162 223 176 162 163 183 178 191 196
350 347 345 340 334 331 329 326 317 314 314 306 331 20 261 279 302 258 221 292 277 312 291 333 16 63 339 345 42 58 71 320 22 327 261 226 270 250 177 170 177 183 185 193 205
348 348 345 340 333 330 328 323 314 327 340 350 41 43 276 306 278 258 217 192 346 355 10 339 61 50 140 86 223 36 302 331 325 9 287 235 283 9 179 190 187 188 187 192 209
347 344 343 341 334 331 332 327 359 10 46 47 58 308 263 354 328 322 206 175 72 7 33 32 41 357 101 196 231 187 32 313 283 324 302 224 262 330 189 201 203 198 184 199 207
345 343 342 339 334 334 343 337 319 201 6 239 152 272 284 311 303 204 166 135 120 70 140 28 239 210 179 122 110 136 122 287 275 288 293 306 265 293 193 213 213 206 192 205 203
344 341 341 338 335 345 19 72 82 307 307 251 255 265 261 296 302 224 157 165 165 178 150 180 239 218 174 166 173 163 6 243 287 360 264 356 316 358 267 307 289 237 192 205 114
343 341 338 339 340 25 71 116 336 182 266 290 222 236 218 174 218 231 179 154 151 161 179 197 140 127 218 203 191 174 218 199 284 337 88 331 189 171 52 1 358 223 184 176 158
340 338 336 342 57 349 154 344 330 173 321 255 235 260 167 185 227 200 183 146 140 208 171 243 224 235 228 212 187 221 211 181 215 332 18 346 324 327 22 64 35 64 169 144 151
338 333 330 330 306 245 248 341 132 188 302 63 185 0 126 199 125 182 181 130 183 173 190 182 173 184 285 214 187 110 109 119 94 95 202 29 269 19 340 347 21 93 141 161 167
334 325 319 313 293 270 310 340 165 223 248 25 149 163 153 223 200 111 153 95 129 157 234 265 283 256 243 56 181 142 98 67 76 48 235 34 311 85 329 322 336 173 159 172 179
330 317 299 273 243 303 324 168 157 209 352 48 29 31 212 185 208 160 181 183 183 169 216 220 228 257 202 148 104 121 135 224 216 202 194 147 236 298 267 297 270 212 178 172 177
330 314 288 248 241 349 61 114 188 229 246 334 323 299 215 166 213 165 154 194 195 134 147 202 203 200 168 225 169 160 214 218 214 163 114 185 207 351 266 318 268 158 170 172 193
335 343 11 344 264 216 143 191 207 210 329 320 300 259 231 214 220 196 217 203 201 194 205 168 232 264 227 128 219 154 175 82 107 54 244 360 252 269 278 253 126 127 169 187 206
342 23 13 349 137 135 136 215 233 242 327 274 279 303 292 335 193 193 178 188 194 200 210 174 225 214 91 108 56 216 138 158 118 181 215 163 279 265 278 299 157 161 181 177 194
17 98 0 111 75 65 198 218 264 259 234 281 307 301 293 318 229 205 195 209 212 187 195 160 235 130 197 207 188 149 174 67 101 328 181 179 211 220 259 287 214 179 180 187 205
3 94 10 341 104 53 165 198 320 291 245 278 262 258 260 321 275 231 222 247 180 152 176 188 158 239 253 59 308 289 180 160 195 182 76 305 213 200 263 267 258 183 174 131 15
43 56 8 352 148 141 258 290 264 274 278 324 276 243 225 278 296 230 208 72 173 172 171 172 197 222 182 154 148 219 137 106 103 129 178 196 183 188 264 209 252 239 102 349 61
305 127 70 65 34 58 48 28 283 296 257 251 277 266 285 245 212 298 259 139 21 222 92 156 144 191 214 189 152 164 157 165 154 179 161 210 239 294 327 89 191 195 184 358 211
12 66 3 135 109 74 307 307 266 298 266 259 245 238 239 264 234 229 253 294 90 229 107 189 192 187 220 223 215 184 172 177 208 155 199 166 212 2 33 346 193 122 101 91 100
5 330 70 88 213 124 120 247 260 248 237 248 233 287 233 230 248 247 201 270 273 111 127 150 165 170 208 180 200 177 161 170 180 171 133 155 248 55 25 256 145 141 99 79 22
8 323 286 27 104 171 135 354 292 346 246 248 285 306 246 236 288 327 275 116 6 233 138 147 145 163 186 158 140 141 163 169 153 193 167 197 189 24 60 76 75 103 129 291 306
Height
815 814 811 809 808 805 802 799 797 795 791 788 785 781 776 774 771 770 770 770 769 768 769 769 772 773 777 773 773 774 788 798 791 794 785 773 780 778 778 785 785 787 788 788 795
815 813 811 808 807 804 802 799 796 794 791 788 784 780 776 773 770 769 769 768 768 768 767 766 767 768 770 771 772 775 788 791 778 775 776 770 772 778 784 788 790 790 790 792 796
815 812 811 808 806 804 801 798 795 792 789 787 783 780 775 772 772 770 768 767 767 767 767 766 767 765 768 768 772 777 785 778 774 767 767 771 777 772 780 791 782 785 787 791 797
814 814 812 807 806 803 801 797 794 791 789 785 782 779 774 773 790 769 769 768 767 767 768 767 766 769 774 778 772 782 774 774 767 766 768 775 770 777 775 772 771 776 785 789 795
815 813 809 807 804 802 799 796 794 790 787 784 782 779 775 775 772 769 768 769 768 767 767 768 769 771 776 774 774 777 772 769 766 766 766 767 770 771 773 769 771 779 786 787 792
814 811 808 806 804 801 796 794 790 787 785 783 782 779 779 783 769 769 768 768 768 767 767 768 769 768 772 774 775 773 773 769 765 764 766 771 771 770 767 769 776 781 782 785 789
812 810 808 805 802 798 795 791 788 785 782 781 780 779 779 773 769 768 768 768 767 768 767 767 768 768 769 772 770 771 775 766 766 764 766 764 781 775 763 768 775 780 781 786 790
813 810 805 802 799 796 792 789 785 782 780 778 778 778 775 768 767 767 768 768 767 767 768 768 767 767 770 769 774 782 779 791 773 770 764 767 782 761 761 767 774 776 782 787 790
811 807 804 802 797 793 790 785 782 780 778 778 779 778 775 767 767 766 767 768 767 767 767 767 767 775 772 780 787 785 799 798 785 772 771 773 773 768 763 768 773 776 781 785 788
809 806 803 800 796 791 787 782 781 780 779 779 779 783 770 769 767 765 766 767 768 767 769 770 775 781 783 785 808 802 802 798 800 778 774 778 777 767 767 768 770 773 782 784 788
808 805 802 798 794 790 786 783 784 783 780 776 776 777 771 768 765 765 765 767 768 771 785 783 788 791 785 787 790 795 800 805 789 779 781 780 777 770 768 769 771 775 784 785 790
807 804 800 796 792 789 787 788 794 796 788 774 775 775 770 770 772 764 765 771 775 786 784 789 795 785 785 787 791 794 799 799 786 781 779 779 779 774 773 774 773 776 783 785 793
805 801 799 795 791 790 789 792 792 792 793 775 771 769 766 767 769 765 764 768 777 787 788 793 785 783 786 788 791 791 795 795 794 786 785 784 781 783 779 775 772 769 773 775 785
805 801 798 794 794 792 793 791 789 791 797 779 772 764 763 762 768 758 760 766 777 786 789 788 778 783 784 787 783 795 781 784 790 789 804 795 811 783 787 782 777 775 773 782 785
803 799 796 794 793 792 792 789 789 791 815 774 768 760 761 764 761 763 760 763 780 783 787 787 783 785 787 780 776 784 779 786 793 796 801 803 806 788 783 780 782 778 777 784 781
801 797 795 792 791 790 789 788 790 802 816 780 767 769 771 766 763 761 762 761 766 779 782 781 772 774 773 772 773 779 786 795 800 802 814 818 815 796 790 789 784 780 780 781 781
797 793 791 791 790 789 788 788 804 811 783 783 777 769 771 773 770 766 772 777 784 801 798 786 780 768 766 777 776 780 790 814 821 820 821 820 817 795 782 780 781 780 779 783 785
792 789 787 788 788 787 787 793 816 795 792 777 775 774 777 771 770 770 776 783 779 783 797 797 803 776 764 769 777 786 788 808 840 833 821 817 812 790 777 777 777 776 777 783 783
788 786 786 786 785 787 789 806 798 796 784 783 775 779 777 771 770 772 773 777 772 774 792 797 794 767 766 764 769 793 796 793 819 836 820 816 798 776 774 775 782 785 782 781 782
787 786 788 785 784 788 792 802 795 789 784 781 788 780 783 776 776 775 780 765 769 766 762 781 796 773 770 765 774 776 785 801 804 833 835 819 817 797 779 773 781 786 782 783 786
786 785 789 787 788 789 796 796 794 784 784 784 785 784 779 778 776 777 772 763 758 765 764 773 784 784 776 778 779 789 790 802 799 815 817 825 807 777 778 776 774 778 778 782 785
788 788 791 789 792 808 798 799 795 785 780 780 780 780 779 776 776 778 772 765 755 757 773 768 778 792 782 773 774 773 777 780 794 824 822 812 800 772 775 775 773 772 778 783 786
792 792 791 790 795 798 800 796 793 787 783 781 781 776 775 776 783 773 770 756 756 756 764 769 786 798 790 781 777 778 785 789 795 798 813 809 798 771 771 777 777 775 779 782 784
795 791 792 794 801 797 798 796 795 785 785 780 779 775 777 776 774 774 766 758 758 757 762 757 781 780 791 782 775 785 783 785 780 792 805 792 786 770 768 777 777 778 779 781 782
799 800 803 795 798 799 800 798 796 795 785 782 780 778 776 779 774 772 767 761 758 763 761 758 774 780 776 776 773 771 777 784 784 779 783 782 787 772 784 785 778 778 783 782 781
803 802 804 802 804 799 804 799 795 790 790 782 782 772 775 778 767 768 769 767 765 760 763 767 777 773 776 774 771 778 776 779 780 785 782 783 784 783 785 782 782 780 783 783 781
812 811 807 807 801 797 798 799 795 793 779 777 776 777 774 769 765 763 762 766 767 764 765 769 775 778 788 779 777 791 779 776 780 783 778 785 772 781 783 784 785 786 786 784 782